EWG2SV EDDH-EGLL

Flight info

Callsign EWG2SV
Flight time 0h 59m
Altitude 36000
Route WSN5C/05 WSN N125 ITMIZ DCT ABNED L980 LOGAN
Aircraft A20N/M-SDE2E3FGHIRWXY/LB1

Departure

Time 2026-05-06 14:14
Airport Hamburg Helmut Schmidt Airport (EDDH)

Arrival

Time 2026-05-06 15:14
Airport London Heathrow Airport (EGLL)
Time Latitude Longitude Altitude Speed Heading
2026-05-06 13:34 53.62987 10.00358 46 ft 0 kts 117°
2026-05-06 13:47 53.62988 10.00354 46 ft 2 kts 116°
2026-05-06 13:47 53.62995 10.00329 44 ft 2 kts 117°
2026-05-06 13:48 53.63003 10.00304 43 ft 2 kts 118°
2026-05-06 13:48 53.63011 10.00280 42 ft 2 kts 121°
2026-05-06 13:48 53.63020 10.00257 45 ft 2 kts 127°
2026-05-06 13:48 53.63032 10.00236 43 ft 2 kts 158°
2026-05-06 13:49 53.63045 10.00236 43 ft 1 kts 208°
2026-05-06 13:49 53.63047 10.00238 43 ft 0 kts 209°
2026-05-06 13:50 53.63016 10.00208 46 ft 10 kts 212°
2026-05-06 13:51 53.62944 10.00129 46 ft 11 kts 213°
2026-05-06 13:51 53.62869 10.00043 44 ft 8 kts 220°
2026-05-06 13:51 53.62867 10.00041 44 ft 0 kts 219°
2026-05-06 13:52 53.62844 10.00010 44 ft 9 kts 218°
2026-05-06 13:52 53.62767 9.99930 45 ft 17 kts 208°
2026-05-06 13:52 53.62655 9.99812 45 ft 18 kts 230°
2026-05-06 13:52 53.62624 9.99632 44 ft 12 kts 259°
2026-05-06 13:53 53.62609 9.99502 44 ft 13 kts 259°
2026-05-06 13:53 53.62589 9.99324 45 ft 16 kts 259°
2026-05-06 13:53 53.62568 9.99138 45 ft 17 kts 259°
2026-05-06 13:53 53.62545 9.98932 46 ft 20 kts 259°
2026-05-06 13:54 53.62516 9.98682 45 ft 23 kts 259°
2026-05-06 13:54 53.62483 9.98390 45 ft 24 kts 259°
2026-05-06 13:54 53.62429 9.98100 44 ft 25 kts 238°
2026-05-06 13:54 53.62319 9.97868 44 ft 20 kts 230°
2026-05-06 13:55 53.62243 9.97713 43 ft 18 kts 230°
2026-05-06 13:55 53.62184 9.97584 43 ft 8 kts 244°
2026-05-06 13:55 53.62182 9.97576 43 ft 1 kts 248°
2026-05-06 13:55 53.62180 9.97556 43 ft 0 kts 261°
2026-05-06 13:56 53.62180 9.97503 43 ft 8 kts 274°
2026-05-06 13:56 53.62181 9.97488 43 ft 0 kts 281°
2026-05-06 14:02 53.62187 9.97464 43 ft 5 kts 292°
2026-05-06 14:02 53.62201 9.97426 43 ft 0 kts 307°
2026-05-06 14:13 53.62212 9.97409 41 ft 5 kts 318°
2026-05-06 14:13 53.62240 9.97377 44 ft 9 kts 333°
2026-05-06 14:13 53.62322 9.97381 43 ft 10 kts 43°
2026-05-06 14:13 53.62425 9.97582 44 ft 57 kts 50°
2026-05-06 14:14 53.62689 9.98116 48 ft 117 kts 50°
2026-05-06 14:14 53.63309 9.99375 605 ft 151 kts 51°
2026-05-06 14:14 53.64002 10.00801 1596 ft 171 kts 51°
2026-05-06 14:14 53.64699 10.02643 2470 ft 199 kts 64°
2026-05-06 14:15 53.65483 10.04879 3218 ft 237 kts 58°
2026-05-06 14:15 53.66472 10.07261 4118 ft 271 kts 52°
2026-05-06 14:15 53.67871 10.09822 4518 ft 321 kts 46°
2026-05-06 14:15 53.69481 10.12273 4738 ft 294 kts 42°
2026-05-06 14:16 53.71130 10.14054 4825 ft 285 kts 19°
2026-05-06 14:16 53.73126 10.14060 4890 ft 296 kts 345°
2026-05-06 14:16 53.74838 10.12139 4934 ft 303 kts 312°
2026-05-06 14:16 53.76040 10.09187 4935 ft 306 kts 303°
2026-05-06 14:17 53.77085 10.06065 4899 ft 306 kts 295°
2026-05-06 14:17 53.77383 10.02510 4903 ft 310 kts 262°
2026-05-06 14:17 53.76835 9.98991 4878 ft 309 kts 251°
2026-05-06 14:17 53.76124 9.95555 4870 ft 310 kts 249°
2026-05-06 14:18 53.75368 9.92147 4868 ft 309 kts 249°
2026-05-06 14:18 53.74588 9.88754 4864 ft 310 kts 248°
2026-05-06 14:18 53.73782 9.85445 4870 ft 309 kts 246°
2026-05-06 14:18 53.72943 9.82107 4867 ft 309 kts 246°
2026-05-06 14:19 53.72091 9.78767 4876 ft 309 kts 246°
2026-05-06 14:19 53.71239 9.75437 4879 ft 309 kts 246°
2026-05-06 14:19 53.70382 9.72109 4878 ft 309 kts 246°
2026-05-06 14:19 53.69526 9.68790 4871 ft 309 kts 246°
2026-05-06 14:20 53.68667 9.65466 4873 ft 308 kts 246°
2026-05-06 14:20 53.67811 9.62154 4886 ft 308 kts 246°
2026-05-06 14:20 53.66956 9.58839 4985 ft 309 kts 246°
2026-05-06 14:20 53.66083 9.55493 5667 ft 314 kts 245°
2026-05-06 14:21 53.65097 9.52046 6424 ft 337 kts 243°
2026-05-06 14:21 53.64007 9.48421 7465 ft 355 kts 243°
2026-05-06 14:21 53.62838 9.44640 8569 ft 371 kts 242°
2026-05-06 14:21 53.61586 9.40666 9197 ft 399 kts 242°
2026-05-06 14:22 53.60210 9.36621 9563 ft 403 kts 240°
2026-05-06 14:22 53.58723 9.32523 9746 ft 406 kts 239°
2026-05-06 14:22 53.57242 9.28542 9802 ft 408 kts 238°
2026-05-06 14:22 53.55656 9.24315 9839 ft 440 kts 238°
2026-05-06 14:23 53.54021 9.19963 9845 ft 439 kts 238°
2026-05-06 14:23 53.52390 9.15615 9854 ft 440 kts 238°
2026-05-06 14:23 53.50757 9.11254 9862 ft 441 kts 238°
2026-05-06 14:23 53.49130 9.06895 9877 ft 441 kts 238°
2026-05-06 14:24 53.47498 9.02521 9881 ft 441 kts 238°
2026-05-06 14:24 53.45870 8.98150 9879 ft 441 kts 238°
2026-05-06 14:24 53.44246 8.93796 9868 ft 441 kts 238°
2026-05-06 14:24 53.42616 8.89432 9866 ft 440 kts 238°
2026-05-06 14:25 53.40988 8.85083 9868 ft 441 kts 238°
2026-05-06 14:25 53.39355 8.80729 10244 ft 440 kts 238°
2026-05-06 14:25 53.37721 8.76359 11228 ft 443 kts 238°
2026-05-06 14:25 53.36079 8.71940 12230 ft 451 kts 238°
2026-05-06 14:26 53.34443 8.67490 13173 ft 459 kts 238°
2026-05-06 14:26 53.32745 8.62839 14087 ft 465 kts 238°
2026-05-06 14:26 53.31078 8.58253 14987 ft 470 kts 238°
2026-05-06 14:26 53.29376 8.53550 15858 ft 475 kts 238°
2026-05-06 14:27 53.27668 8.48809 16767 ft 478 kts 239°
2026-05-06 14:27 53.26113 8.43855 17625 ft 483 kts 244°
2026-05-06 14:27 53.24355 8.37155 18645 ft 488 kts 246°
2026-05-06 14:27 53.21761 8.26595 19980 ft 495 kts 248°
2026-05-06 14:28 53.19372 8.15688 21275 ft 502 kts 250°
2026-05-06 14:28 53.17018 8.04645 22450 ft 508 kts 250°
2026-05-06 14:28 53.14673 7.93708 22514 ft 508 kts 250°
2026-05-06 14:28 53.13474 7.88149 22525 ft 509 kts 250°
2026-05-06 14:29 53.12278 7.82615 22561 ft 508 kts 250°
2026-05-06 14:29 53.11076 7.77068 22579 ft 508 kts 250°
2026-05-06 14:29 53.09902 7.71659 22586 ft 507 kts 250°
2026-05-06 14:29 53.08696 7.66107 22583 ft 507 kts 250°
2026-05-06 14:30 53.06981 7.58211 22579 ft 507 kts 250°
2026-05-06 14:30 53.04369 7.46186 22573 ft 506 kts 250°
2026-05-06 14:30 53.03046 7.40096 22604 ft 506 kts 250°
2026-05-06 14:30 53.01850 7.34592 22665 ft 506 kts 250°
2026-05-06 14:31 53.00653 7.29087 22670 ft 506 kts 250°
2026-05-06 14:31 52.98064 7.17216 22672 ft 506 kts 250°
2026-05-06 14:31 52.93250 6.95213 22669 ft 505 kts 250°
2026-05-06 14:31 52.91594 6.87661 22682 ft 504 kts 250°
2026-05-06 14:32 52.87388 6.68495 24482 ft 497 kts 250°
2026-05-06 14:32 52.83097 6.48649 26417 ft 493 kts 250°
2026-05-06 14:32 52.81976 6.43489 26948 ft 491 kts 248°
2026-05-06 14:32 52.80698 6.38259 27509 ft 490 kts 246°
2026-05-06 14:33 52.79348 6.33079 28078 ft 489 kts 245°
2026-05-06 14:33 52.77982 6.27933 28667 ft 488 kts 245°
2026-05-06 14:33 52.76630 6.22866 29250 ft 487 kts 245°
2026-05-06 14:33 52.75265 6.17745 29655 ft 488 kts 245°
2026-05-06 14:34 52.71187 6.02413 29865 ft 488 kts 245°
2026-05-06 14:34 52.65612 5.81595 29885 ft 486 kts 245°
2026-05-06 14:34 52.54522 5.41094 29887 ft 484 kts 244°
2026-05-06 14:35 52.50346 5.26117 29883 ft 483 kts 244°
2026-05-06 14:35 52.47537 5.16096 29888 ft 483 kts 244°
2026-05-06 14:36 52.44629 5.06172 29893 ft 483 kts 243°
2026-05-06 14:36 52.41737 4.96291 29116 ft 486 kts 244°
2026-05-06 14:37 52.39444 4.88299 27761 ft 489 kts 244°
2026-05-06 14:37 52.37974 4.83185 26928 ft 491 kts 244°
2026-05-06 14:37 52.36515 4.78126 26134 ft 493 kts 244°
2026-05-06 14:37 52.35061 4.73107 25363 ft 495 kts 244°
2026-05-06 14:38 52.33578 4.68015 24606 ft 497 kts 244°
2026-05-06 14:38 52.32078 4.62895 23855 ft 500 kts 244°
2026-05-06 14:38 52.30567 4.57768 23050 ft 501 kts 244°
2026-05-06 14:38 52.29043 4.52625 22058 ft 503 kts 244°
2026-05-06 14:39 52.27518 4.47503 21080 ft 501 kts 244°
2026-05-06 14:39 52.26000 4.42432 20138 ft 490 kts 244°
2026-05-06 14:39 52.24511 4.37476 19225 ft 484 kts 244°
2026-05-06 14:39 52.22753 4.31660 18179 ft 479 kts 244°
2026-05-06 14:40 52.16954 4.12692 15982 ft 463 kts 244°
2026-05-06 14:40 52.11150 3.93866 15911 ft 464 kts 244°
2026-05-06 14:40 52.05353 3.75143 15915 ft 463 kts 244°
2026-05-06 14:40 51.99526 3.56411 15920 ft 463 kts 244°
2026-05-06 14:41 51.97333 3.49377 15924 ft 463 kts 244°
2026-05-06 14:41 51.95878 3.44719 15921 ft 462 kts 244°
2026-05-06 14:41 51.94444 3.40134 15930 ft 463 kts 244°
2026-05-06 14:41 51.92995 3.35505 15930 ft 460 kts 244°
2026-05-06 14:42 51.91609 3.31089 15920 ft 414 kts 244°
2026-05-06 14:42 51.90426 3.25048 15938 ft 367 kts 263°
2026-05-06 14:42 51.90204 3.20913 15941 ft 370 kts 266°
2026-05-06 14:42 51.89944 3.16763 15937 ft 370 kts 263°
2026-05-06 14:43 51.89606 3.12638 15940 ft 370 kts 262°
2026-05-06 14:43 51.88979 3.06578 15937 ft 369 kts 258°
2026-05-06 14:43 51.88385 3.02455 15938 ft 370 kts 257°
2026-05-06 14:43 51.87767 2.98470 15937 ft 369 kts 256°
2026-05-06 14:44 51.87077 2.94148 15939 ft 370 kts 256°
2026-05-06 14:44 51.85780 2.86141 15941 ft 369 kts 256°
2026-05-06 14:44 51.85124 2.82107 15942 ft 370 kts 256°
2026-05-06 14:45 51.83812 2.74080 15942 ft 369 kts 256°
2026-05-06 14:45 51.82316 2.64959 15944 ft 369 kts 256°
2026-05-06 14:45 51.79941 2.48798 15948 ft 370 kts 258°
2026-05-06 14:45 51.77652 2.32572 15955 ft 370 kts 258°
2026-05-06 14:46 51.75383 2.16534 15951 ft 370 kts 257°
2026-05-06 14:46 51.73364 2.01602 15952 ft 371 kts 260°
2026-05-06 14:46 51.72962 1.97498 15954 ft 370 kts 262°
2026-05-06 14:46 51.72618 1.93371 15955 ft 371 kts 263°
2026-05-06 14:47 51.72295 1.89233 15955 ft 371 kts 263°
2026-05-06 14:47 51.72030 1.85097 15956 ft 371 kts 265°
2026-05-06 14:47 51.71822 1.80952 15956 ft 371 kts 266°
2026-05-06 14:47 51.71637 1.76795 15959 ft 371 kts 266°
2026-05-06 14:48 51.71460 1.72645 15956 ft 371 kts 266°
2026-05-06 14:48 51.71286 1.68480 15957 ft 371 kts 266°
2026-05-06 14:48 51.71115 1.64318 15959 ft 372 kts 266°
2026-05-06 14:48 51.70946 1.60214 15959 ft 372 kts 266°
2026-05-06 14:49 51.70774 1.56054 15961 ft 371 kts 266°
2026-05-06 14:49 51.70582 1.51899 15960 ft 372 kts 265°
2026-05-06 14:49 51.70318 1.47735 15958 ft 372 kts 264°
2026-05-06 14:49 51.70026 1.43599 15959 ft 372 kts 264°
2026-05-06 14:50 51.69722 1.39466 15959 ft 372 kts 263°
2026-05-06 14:50 51.69411 1.35318 15960 ft 372 kts 263°
2026-05-06 14:50 51.69096 1.31183 15959 ft 372 kts 263°
2026-05-06 14:50 51.68779 1.27042 15964 ft 372 kts 263°
2026-05-06 14:51 51.68461 1.22910 15962 ft 372 kts 263°
2026-05-06 14:51 51.68142 1.18769 15963 ft 372 kts 263°
2026-05-06 14:51 51.67850 1.14625 15961 ft 372 kts 267°
2026-05-06 14:51 51.67914 1.10461 15962 ft 372 kts 277°
2026-05-06 14:52 51.68434 1.06376 15964 ft 372 kts 284°
2026-05-06 14:52 51.69096 1.02349 15965 ft 371 kts 285°
2026-05-06 14:52 51.69791 0.98402 15966 ft 371 kts 286°
2026-05-06 14:52 51.70514 0.94404 15964 ft 371 kts 286°
2026-05-06 14:53 51.71247 0.90409 15967 ft 371 kts 286°
2026-05-06 14:53 51.71980 0.86428 15966 ft 370 kts 286°
2026-05-06 14:53 51.72714 0.82451 15967 ft 370 kts 286°
2026-05-06 14:53 51.73449 0.78467 15966 ft 370 kts 286°
2026-05-06 14:54 51.74183 0.74494 15965 ft 369 kts 286°
2026-05-06 14:54 51.74915 0.70524 15977 ft 368 kts 286°
2026-05-06 14:54 51.75649 0.66541 15976 ft 369 kts 286°
2026-05-06 14:54 51.76379 0.62567 15971 ft 368 kts 286°
2026-05-06 14:55 51.77106 0.58608 15722 ft 365 kts 286°
2026-05-06 14:55 51.77818 0.54718 14872 ft 361 kts 286°
2026-05-06 14:55 51.78442 0.50803 13948 ft 357 kts 280°
2026-05-06 14:55 51.78677 0.46838 12958 ft 352 kts 272°
2026-05-06 14:56 51.78403 0.43005 11999 ft 350 kts 252°
2026-05-06 14:56 51.77386 0.39444 11030 ft 348 kts 244°
2026-05-06 14:56 51.76218 0.36023 10094 ft 346 kts 242°
2026-05-06 14:56 51.75020 0.32677 9096 ft 344 kts 241°
2026-05-06 14:57 51.73807 0.29319 8574 ft 346 kts 241°
2026-05-06 14:57 51.73008 0.27115 8332 ft 342 kts 241°
2026-05-06 14:57 51.71812 0.23812 8132 ft 341 kts 241°
2026-05-06 14:57 51.70615 0.20500 8052 ft 341 kts 241°
2026-05-06 14:58 51.69422 0.17196 8014 ft 341 kts 241°
2026-05-06 14:58 51.68226 0.13888 8010 ft 341 kts 241°
2026-05-06 14:58 51.67027 0.10584 8011 ft 341 kts 241°
2026-05-06 14:58 51.65825 0.07282 8006 ft 341 kts 241°
2026-05-06 14:59 51.64625 0.03988 7994 ft 341 kts 241°
2026-05-06 14:59 51.63470 0.00839 7993 ft 312 kts 241°
2026-05-06 14:59 51.62383 -0.02095 8001 ft 302 kts 241°
2026-05-06 14:59 51.61358 -0.04854 8008 ft 282 kts 241°
2026-05-06 15:00 51.60348 -0.07555 7998 ft 282 kts 241°
2026-05-06 15:00 51.59334 -0.10264 7997 ft 281 kts 240°
2026-05-06 15:00 51.58328 -0.12941 7995 ft 280 kts 241°
2026-05-06 15:00 51.57315 -0.15637 7994 ft 281 kts 241°
2026-05-06 15:01 51.56303 -0.18322 7994 ft 281 kts 240°
2026-05-06 15:01 51.55292 -0.21005 7990 ft 280 kts 241°
2026-05-06 15:01 51.54284 -0.23673 7998 ft 281 kts 241°
2026-05-06 15:01 51.53307 -0.26391 7994 ft 279 kts 251°
2026-05-06 15:02 51.53053 -0.29375 8008 ft 275 kts 275°
2026-05-06 15:02 51.53228 -0.32458 7998 ft 273 kts 279°
2026-05-06 15:02 51.53473 -0.35491 7994 ft 273 kts 280°
2026-05-06 15:02 51.53738 -0.38463 7995 ft 273 kts 281°
2026-05-06 15:03 51.54020 -0.41483 7990 ft 272 kts 281°
2026-05-06 15:03 51.54306 -0.44485 7989 ft 272 kts 281°
2026-05-06 15:03 51.54596 -0.47492 7985 ft 272 kts 281°
2026-05-06 15:03 51.54885 -0.50493 7989 ft 272 kts 281°
2026-05-06 15:04 51.55176 -0.53513 7993 ft 272 kts 281°
2026-05-06 15:04 51.55466 -0.56523 7906 ft 270 kts 281°
2026-05-06 15:04 51.55744 -0.59422 7551 ft 262 kts 281°
2026-05-06 15:04 51.56030 -0.62422 6632 ft 277 kts 281°
2026-05-06 15:05 51.56322 -0.65492 5749 ft 286 kts 281°
2026-05-06 15:05 51.56625 -0.68689 4853 ft 292 kts 281°
2026-05-06 15:05 51.56924 -0.71882 4360 ft 284 kts 281°
2026-05-06 15:05 51.57207 -0.74947 4158 ft 268 kts 281°
2026-05-06 15:06 51.57470 -0.77870 3694 ft 261 kts 281°
2026-05-06 15:06 51.57720 -0.80679 3489 ft 249 kts 281°
2026-05-06 15:06 51.57942 -0.83317 3543 ft 228 kts 281°
2026-05-06 15:06 51.57839 -0.85757 3519 ft 217 kts 245°
2026-05-06 15:07 51.56832 -0.87374 3442 ft 208 kts 199°
2026-05-06 15:07 51.55395 -0.87807 3200 ft 212 kts 184°
2026-05-06 15:07 51.53942 -0.87943 3100 ft 205 kts 178°
2026-05-06 15:07 51.52526 -0.87813 3028 ft 204 kts 159°
2026-05-06 15:08 51.51278 -0.86768 2984 ft 200 kts 143°
2026-05-06 15:08 51.50122 -0.85491 3003 ft 203 kts 142°
2026-05-06 15:08 51.48978 -0.84179 3014 ft 201 kts 141°
2026-05-06 15:08 51.47931 -0.82749 3005 ft 198 kts 116°
2026-05-06 15:09 51.47523 -0.80685 2954 ft 192 kts 94°
2026-05-06 15:09 51.47349 -0.78573 2989 ft 192 kts 92°
2026-05-06 15:09 51.47207 -0.76451 2980 ft 190 kts 90°
2026-05-06 15:09 51.47215 -0.74361 2925 ft 188 kts 80°
2026-05-06 15:10 51.47349 -0.72362 3070 ft 161 kts 81°
2026-05-06 15:10 51.47401 -0.70590 3558 ft 163 kts 84°
2026-05-06 15:10 51.47423 -0.68689 3879 ft 173 kts 85°
2026-05-06 15:10 51.47473 -0.66778 4088 ft 172 kts 81°
2026-05-06 15:11 51.47574 -0.64839 4033 ft 173 kts 82°
2026-05-06 15:11 51.47640 -0.62911 3692 ft 172 kts 84°
2026-05-06 15:11 51.47663 -0.61017 3144 ft 171 kts 85°
2026-05-06 15:11 51.47678 -0.59134 2560 ft 166 kts 85°
2026-05-06 15:12 51.47687 -0.57304 2095 ft 163 kts 84°
2026-05-06 15:12 51.47706 -0.55481 1712 ft 163 kts 84°
2026-05-06 15:12 51.47715 -0.53654 1109 ft 164 kts 86°
2026-05-06 15:12 51.47707 -0.51859 790 ft 163 kts 85°
2026-05-06 15:13 51.47742 -0.50053 435 ft 161 kts 84°
2026-05-06 15:13 51.47754 -0.48232 114 ft 163 kts 86°
2026-05-06 15:13 51.47776 -0.46451 93 ft 154 kts 88°
2026-05-06 15:13 51.47744 -0.44840 92 ft 121 kts 80°
2026-05-06 15:14 51.47775 -0.43802 82 ft 69 kts 87°
2026-05-06 15:14 51.47734 -0.43377 89 ft 0 kts 138°
2026-05-06 15:14 51.47677 -0.43290 91 ft 13 kts 136°
2026-05-06 15:14 51.47579 -0.43253 88 ft 18 kts 180°
2026-05-06 15:15 51.47556 -0.43254 87 ft 0 kts 180°
2026-05-06 15:16 51.47507 -0.43272 86 ft 19 kts 209°
2026-05-06 15:17 51.47397 -0.43425 88 ft 22 kts 223°
2026-05-06 15:17 51.47263 -0.43586 88 ft 23 kts 186°
2026-05-06 15:17 51.47110 -0.43607 85 ft 20 kts 181°
2026-05-06 15:17 51.46957 -0.43609 84 ft 24 kts 178°
2026-05-06 15:18 51.46809 -0.43601 85 ft 18 kts 198°
2026-05-06 15:18 51.46770 -0.43816 84 ft 26 kts 271°
2026-05-06 15:18 51.46763 -0.44061 83 ft 20 kts 257°
2026-05-06 15:18 51.46754 -0.44224 84 ft 14 kts 269°
2026-05-06 15:19 51.46753 -0.44434 86 ft 20 kts 269°
2026-05-06 15:19 51.46753 -0.44625 87 ft 14 kts 271°
2026-05-06 15:19 51.46753 -0.44783 89 ft 13 kts 272°
2026-05-06 15:19 51.46755 -0.44945 89 ft 7 kts 277°
2026-05-06 15:20 51.46810 -0.44979 87 ft 12 kts 359°
2026-05-06 15:20 51.46832 -0.44979 87 ft 0 kts 360°